User: anonymous   Login
Location: Mentone
(34.5413°N, 85.5351°W)
Time: 23:59:25
(UTC-06:00)
Language:

UOSAT-12 - Orbit

View from above orbital plane
View from above orbital plane
View from above satellite
View from above satellite

Ground track
Ground track

The orbit data is extracted from the following two-line orbital elements,

1 25693U 99021A   15 57.72989663  .00000767  00000-0  98158-4 0  9999
2 25693 064.5563 198.4985 0047461 254.6181 105.0177 14.80327232855594
Epoch (UTC): 26 February 2015 17:31:03
Eccentricity: 0.0047461
inclination: 64.5563°
perigee height: 595 km
apogee height: 661 km
right ascension of ascending node: 198.4985°
argument of perigee: 254.6181°
revolutions per day: 14.80327232
mean anomaly at epoch: 105.0177°
orbit number at epoch: 85559

The dashed part of the orbit path shows where the satellite is in the earth's shadow,  

DLR